Location: Canet
(43.3261°N, 5.3723°E)
Time: 19:25:51
(UTC+00:00)

Cosmos 923 Rocket - Pass Details

Date: 24 January 2021
Orbit: 758 x 785 km, 74.0° (Epoch: 07 March)

Event Time Altitude Azimuth Distance (km) Brightness Sun altitude
Rises 17:28:18 0° 342° (NNW) 3,284 7.3 -9.0°
Reaches altitude 10° 17:30:45 10° 347° (NNW) 2,350 6.5 -9.4°
Maximum altitude 17:36:01 58° 66° (ENE) 907 4.1 -10.3°
Drops below altitude 10° 17:41:13 10° 146° (SE) 2,321 6.3 -11.3°
Sets 17:43:38 0° 150° (SSE) 3,240 7.1 -11.7°
